User: anonymous   Login
Location: Pilipovskiye Korichintsy
(49.1833°N, 27.4667°E)
Time: 10:12:18
(UTC+00:00)
Language:

Lacrosse 5 - Orbit

View from above orbital plane
View from above orbital plane
View from above satellite
View from above satellite

Ground track
Ground track

The orbit data is extracted from the following two-line orbital elements,

1 28646U 05016A   20269.11193514 0.00000000  00000-0  00000-0 0    05
2 28646  57.0148 343.9775 0004394  68.8947 291.1053 14.52053347    08
Epoch (UTC): 25 September 2020 02:41:11
Eccentricity: 0.0004394
inclination: 57.0148°
perigee height: 716 km
apogee height: 722 km
right ascension of ascending node: 343.9775°
argument of perigee: 68.8947°
revolutions per day: 14.52053347
mean anomaly at epoch: 291.1053°
orbit number at epoch: 0

The dashed part of the orbit path shows where the satellite is in the earth's shadow,  

DLR